When you browse on this site, cookies collect data to enhance your experience and personalize the content and advertising you see.
Visit our Privacy Policy to learn more. By continuing to use the site, you agree to this use of cookies and data.
  • Em Portugal
  • Lista de países
  • Para 7 dias
  • Temperatura da água
  • Mapa do tempo
  • Widgets de tempo
  • user-avatar
    Iniciar Sessão

    Previsão horária em Klodne

    Hoje, 19 Setembro, Quinta-feira

    Tempo Temperatura Precipitação Vento Pressão Humidade
    00:00 +5°C° 0 mm 2 m/s 718 mmHg 83%
    01:00 +4°C° 0 mm 2 m/s 718 mmHg 86%
    02:00 +4°C° 0 mm 2 m/s 718 mmHg 88%
    03:00 +4°C° 0 mm 2 m/s 718 mmHg 89%
    04:00 +4°C° 0 mm 2 m/s 718 mmHg 91%
    05:00 +5°C° 0 mm 2 m/s 718 mmHg 88%
    06:00 +5°C° 0 mm 2 m/s 718 mmHg 85%
    07:00 +6°C° 0 mm 2 m/s 718 mmHg 83%
    08:00 +7°C° 0.1 mm 3 m/s 719 mmHg 75%
    09:00 +9°C° 0.1 mm 3 m/s 719 mmHg 68%
    10:00 +10°C° 0.1 mm 4 m/s 719 mmHg 61%
    11:00 +10°C° 0.2 mm 4 m/s 719 mmHg 60%
    12:00 +11°C° 0.2 mm 4 m/s 719 mmHg 59%
    13:00 +11°C° 0.2 mm 4 m/s 719 mmHg 58%
    14:00 +11°C° 0.1 mm 4 m/s 719 mmHg 59%
    15:00 +11°C° 0.1 mm 4 m/s 719 mmHg 61%
    16:00 +10°C° 0.1 mm 4 m/s 719 mmHg 63%
    17:00 +9°C° 0.2 mm 3 m/s 719 mmHg 72%
    18:00 +7°C° 0.2 mm 3 m/s 719 mmHg 81%
    19:00 +6°C° 0.2 mm 2 m/s 719 mmHg 90%
    20:00 +5°C° 0.3 mm 2 m/s 719 mmHg 91%
    21:00 +5°C° 0.3 mm 2 m/s 719 mmHg 92%
    22:00 +4°C° 0.3 mm 2 m/s 719 mmHg 93%
    23:00 +4°C° 0 mm 2 m/s 719 mmHg 93%

    Amanhã, 20 Setembro, Sexta-feira

    Tempo Temperatura Precipitação Vento Pressão Humidade
    00:00 +4°C° 0 mm 2 m/s 720 mmHg 93%
    01:00 +3°C° 0 mm 2 m/s 720 mmHg 93%
    02:00 +3°C° 0 mm 2 m/s 720 mmHg 93%
    03:00 +3°C° 0 mm 2 m/s 720 mmHg 94%
    04:00 +3°C° 0 mm 2 m/s 720 mmHg 94%
    05:00 +3°C° 0 mm 2 m/s 720 mmHg 93%
    06:00 +4°C° 0 mm 2 m/s 720 mmHg 91%
    07:00 +5°C° 0 mm 2 m/s 720 mmHg 89%
    08:00 +6°C° 0 mm 2 m/s 721 mmHg 82%
    09:00 +8°C° 0 mm 3 m/s 721 mmHg 75%
    10:00 +9°C° 0 mm 3 m/s 722 mmHg 68%
    11:00 +10°C° 0.1 mm 3 m/s 721 mmHg 64%
    12:00 +11°C° 0.1 mm 3 m/s 721 mmHg 59%
    13:00 +11°C° 0.1 mm 3 m/s 721 mmHg 55%
    14:00 +11°C° 0.1 mm 3 m/s 721 mmHg 56%
    15:00 +11°C° 0.1 mm 3 m/s 720 mmHg 58%
    16:00 +11°C° 0.1 mm 3 m/s 720 mmHg 59%
    17:00 +9°C° 0 mm 2 m/s 720 mmHg 66%
    18:00 +7°C° 0 mm 2 m/s 720 mmHg 73%
    19:00 +7°C° 0 mm 1 m/s 720 mmHg 80%
    20:00 +6°C° 0 mm 1 m/s 720 mmHg 81%
    21:00 +6°C° 0 mm 1 m/s 720 mmHg 83%
    22:00 +6°C° 0 mm 1 m/s 721 mmHg 84%
    23:00 +5°C° 0 mm 1 m/s 721 mmHg 84%

    Depois de amanhã, 21 Setembro, Sábado

    Tempo Temperatura Precipitação Vento Pressão Humidade
    00:00 +5°C° 0 mm 1 m/s 720 mmHg 85%
    01:00 +5°C° 0 mm 1 m/s 720 mmHg 85%
    02:00 +5°C° 0 mm 1 m/s 720 mmHg 85%
    03:00 +4°C° 0 mm 1 m/s 720 mmHg 85%
    04:00 +4°C° 0 mm 1 m/s 720 mmHg 85%
    05:00 +5°C° 0 mm 1 m/s 720 mmHg 81%
    06:00 +6°C° 0 mm 1 m/s 720 mmHg 76%
    07:00 +7°C° 0 mm 1 m/s 720 mmHg 72%
    08:00 +10°C° 0 mm 1 m/s 721 mmHg 64%
    09:00 +12°C° 0 mm 1 m/s 721 mmHg 56%
    10:00 +15°C° 0 mm 1 m/s 721 mmHg 48%
    11:00 +15°C° 0 mm 1 m/s 721 mmHg 46%
    12:00 +16°C° 0 mm 1 m/s 720 mmHg 44%
    13:00 +18°C° 0 mm 1 m/s 720 mmHg 42%
    14:00 +18°C° 0 mm 1 m/s 720 mmHg 46%
    15:00 +16°C° 0 mm 1 m/s 719 mmHg 51%
    16:00 +16°C° 0 mm 1 m/s 719 mmHg 56%
    17:00 +14°C° 0 mm 1 m/s 719 mmHg 62%
    18:00 +12°C° 0 mm 1 m/s 719 mmHg 68%
    19:00 +9°C° 0 mm 1 m/s 718 mmHg 75%
    20:00 +9°C° 0 mm 1 m/s 718 mmHg 76%
    21:00 +9°C° 0 mm 1 m/s 718 mmHg 77%
    22:00 +8°C° 0 mm 1 m/s 718 mmHg 78%
    23:00 +8°C° 0 mm 1 m/s 718 mmHg 78%

    22 Setembro, Domingo

    Tempo Temperatura Precipitação Vento Pressão Humidade
    00:00 +8°C° 0 mm 1 m/s 718 mmHg 78%
    01:00 +7°C° 0 mm 1 m/s 718 mmHg 79%
    02:00 +7°C° 0 mm 1 m/s 717 mmHg 79%
    03:00 +7°C° 0 mm 1 m/s 717 mmHg 79%
    04:00 +7°C° 0 mm 1 m/s 717 mmHg 79%
    05:00 +8°C° 0 mm 1 m/s 717 mmHg 76%
    06:00 +8°C° 0 mm 1 m/s 717 mmHg 73%
    07:00 +9°C° 0 mm 1 m/s 717 mmHg 70%
    08:00 +12°C° 0 mm 2 m/s 717 mmHg 62%
    09:00 +14°C° 0 mm 2 m/s 717 mmHg 55%
    10:00 +16°C° 0 mm 2 m/s 717 mmHg 47%
    11:00 +18°C° 0 mm 2 m/s 717 mmHg 45%
    12:00 +19°C° 0 mm 2 m/s 716 mmHg 43%
    13:00 +20°C° 0 mm 2 m/s 716 mmHg 42%
    14:00 +19°C° 0 mm 2 m/s 715 mmHg 46%
    15:00 +19°C° 0 mm 2 m/s 715 mmHg 49%
    16:00 +18°C° 0 mm 2 m/s 715 mmHg 53%
    17:00 +16°C° 0 mm 2 m/s 714 mmHg 57%
    18:00 +14°C° 0 mm 2 m/s 714 mmHg 61%
    19:00 +12°C° 0 mm 2 m/s 713 mmHg 65%
    20:00 +12°C° 0 mm 2 m/s 713 mmHg 62%
    21:00 +12°C° 0 mm 2 m/s 713 mmHg 59%
    22:00 +13°C° 0 mm 2 m/s 713 mmHg 56%
    23:00 +13°C° 0 mm 2 m/s 712 mmHg 53%

    23 Setembro, Segunda-feira

    Tempo Temperatura Precipitação Vento Pressão Humidade
    00:00 +13°C° 0 mm 2 m/s 712 mmHg 50%
    01:00 +14°C° 0 mm 2 m/s 712 mmHg 47%
    02:00 +14°C° 0 mm 2 m/s 711 mmHg 48%
    03:00 +12°C° 0 mm 3 m/s 711 mmHg 48%
    04:00 +12°C° 0 mm 3 m/s 710 mmHg 49%
    05:00 +12°C° 0 mm 3 m/s 710 mmHg 53%
    06:00 +12°C° 0 mm 3 m/s 710 mmHg 56%
    07:00 +12°C° 0 mm 3 m/s 710 mmHg 60%
    08:00 +14°C° 0 mm 3 m/s 710 mmHg 57%
    09:00 +17°C° 0 mm 2 m/s 710 mmHg 53%
    10:00 +19°C° 0 mm 2 m/s 710 mmHg 49%
    11:00 +19°C° 0 mm 2 m/s 710 mmHg 50%
    12:00 +20°C° 0 mm 2 m/s 710 mmHg 50%
    13:00 +20°C° 0 mm 2 m/s 709 mmHg 50%
    14:00 +19°C° 0 mm 2 m/s 709 mmHg 56%
    15:00 +18°C° 0 mm 2 m/s 709 mmHg 62%
    16:00 +17°C° 0 mm 2 m/s 709 mmHg 68%
    17:00 +16°C° 0 mm 2 m/s 709 mmHg 71%
    18:00 +15°C° 0 mm 2 m/s 709 mmHg 74%
    19:00 +15°C° 0 mm 2 m/s 709 mmHg 77%
    20:00 +14°C° 0.2 mm 2 m/s 709 mmHg 81%
    21:00 +14°C° 0.2 mm 2 m/s 709 mmHg 86%
    22:00 +12°C° 0.2 mm 3 m/s 709 mmHg 91%
    23:00 +12°C° 1.1 mm 3 m/s 709 mmHg 92%

    24 Setembro, Terça-feira

    Tempo Temperatura Precipitação Vento Pressão Humidade
    00:00 +12°C° 1.1 mm 3 m/s 709 mmHg 93%
    01:00 +12°C° 1.1 mm 4 m/s 709 mmHg 94%
    02:00 +11°C° 0.1 mm 3 m/s 709 mmHg 94%
    03:00 +10°C° 0.1 mm 3 m/s 709 mmHg 93%
    04:00 +10°C° 0.1 mm 2 m/s 709 mmHg 93%
    05:00 +10°C° 0 mm 3 m/s 709 mmHg 92%
    06:00 +10°C° 0 mm 3 m/s 709 mmHg 91%
    07:00 +11°C° 0 mm 3 m/s 709 mmHg 90%
    08:00 +11°C° 0.6 mm 4 m/s 710 mmHg 89%
    09:00 +11°C° 0.6 mm 4 m/s 710 mmHg 87%
    10:00 +10°C° 0.6 mm 5 m/s 710 mmHg 86%
    11:00 +11°C° 1.6 mm 4 m/s 710 mmHg 88%
    12:00 +11°C° 1.6 mm 4 m/s 710 mmHg 90%
    13:00 +10°C° 1.6 mm 3 m/s 710 mmHg 92%
    14:00 +11°C° 0.2 mm 3 m/s 710 mmHg 91%
    15:00 +13°C° 0.2 mm 2 m/s 710 mmHg 89%
    16:00 +13°C° 0.2 mm 2 m/s 710 mmHg 88%
    17:00 +12°C° 0.1 mm 2 m/s 710 mmHg 89%
    18:00 +12°C° 0.1 mm 2 m/s 711 mmHg 90%
    19:00 +10°C° 0.1 mm 2 m/s 711 mmHg 91%
    20:00 +9°C° 0 mm 2 m/s 711 mmHg 92%
    21:00 +9°C° 0 mm 2 m/s 711 mmHg 92%
    22:00 +9°C° 0 mm 2 m/s 711 mmHg 93%
    23:00 +9°C° 0 mm 2 m/s 711 mmHg 92%
    Mostrar mais